Погода в Ужгороде

Поиск расширенной информации на нашем сайте:

Полезная информация:

Новости сайта



02.01.2020
Опубликован Долгосрочный прогноз погоды по городам России и ближнего зарубежья на январь 2020 года.
Карты: Прогноз на январь и февраль 2020 года, Сравнение прогнозируемой аномалии приземной температуры воздуха на январь 2020 года по разным моделям.




Погода в Ужгороде - сегодня

Время (UTC), дата Ветер
(°,м/с) 
Видим.   Явления Облачность Т
(°С)
Тd
(°С)
f(%) Тe
(°С)
Pmin
(гПа)
dP
(гПа)
Po
(мм)
O2
(г/м3)
Тmin Tmax R s Состояние
почвы
15 27.03.20 260 (З) 20000 м    ясно 
+18.9 -1.2 26 +20  1019  -1.4  754  284           
18 27.03.20 100 (В) 10 км    ясно 
+11.1 +1.9 53 +12  1018.4  -1  753  291    +19.8       
21 27.03.20 100 (В) 10 км    ясно 
+11.8 -1.9 38 +12  1018.3  -0.1  753  291           
00 28.03.20 тихо ()   10 км    ясно 
+6.1 -1.8 57 +6  1018.6  753  297           
03 28.03.20 тихо ()   10 км    ясно 
+0.8 -1.2 86 +1  1018.1  -0.7  752  302           
06 28.03.20 280 (З) 10 км    ясно 
+3.5 -0.3 76 +3  1017.5  -0.5  752  299  +0.6         
09 28.03.20 160 (Ю) 10 км    1/1 1500 м 
[Cu hum]
+14.9 +0.4 37 +16  1016.1  -0.8  752  287           
12 28.03.20 280 (З) 10 км    1/1 1500 м 
[Cu hum]
+17 -2.2 27 +18  1013.8  -2.2  750  285           
15 28.03.20 240 (ЮЗ) 10 км    3/3 1500 м 
[Cu hum]
+18.2 -1.7 26 +19  1011.1  -2.6  748  283           
18 28.03.20 тихо ()   10 км    4/3 1500 м средняя 
[Sc|Ac trans]
+11.7 +2.5 53 +12  1011.7  0.3  748  289    +18.4       
21 28.03.20 тихо ()   10 км    6/0 верхняя 
[Ci fib]
+6.8 +0.7 65 +7  1011.7  -0.2  748  294           
00 29.03.20 тихо ()   10 км    ясно 
+3.4 -0.4 76 +3  1011.4  -0.5  748  298           
03 29.03.20 тихо ()   10 км    6/0 средняя 
[Ac trans]
+1.7 -0.5 85 +2  1010.4  -1.1  747  299           
06 29.03.20 тихо ()   10 км    3/0 средняя 
[Ac trans]
+4.7 +0.3 73 +5  1010.5  0.3  747  296  +1.1         
09 29.03.20 260 (З) 10 км    3/0 верхняя 
[Ci fib]
+12.1 -1.4 39 +12  1010.4  0.2  747  288           
12 29.03.20 260 (З) 10 км    4/0 верхняя 
[Ci fib]
+16.6 -3.6 25 +17  1008.7  -1.4  746  284           
15 29.03.20 340 (С) 10 км    8/0 средняя 
[Ac trans]
+17.1 -3.6 24 +18  1008.1  -0.6  746  283           
18 29.03.20 320 (СЗ) 10 км    8/0 средняя 
[Ac trans]
+13.6 -1.9 34 +14  1009.6  1.3  747  287    +18.8       
21 29.03.20 330 (СЗ) 10 км    8/0 средняя 
[Ac trans]
+11.1 +0.4 48 +10  1011.5  1.8  748  290           
00 30.03.20 320 (СЗ) 10 км    10/0 средняя 
[Ac As]
+8.8 +0.9 58 +7  1012.8  1.1  749  292           
03 30.03.20 360 (С) 10 км    10/10 1500 м 
[Sc]
+7 -0.5 59 +5  1014.4  1.5  750  295           
06 30.03.20 340 (С) 8-19  10 км    10/10 1300 м 
[Sc]
+3.4 -4.4 57 1014.6  750  299  +3         
09 30.03.20 350 (С) 10  20000 м    9/9 1380 м 
[Sc]
+3.4 -3 63 -1  1014.4  2.9  752  300           
12 30.03.20 350 (С) 20000 м    10/6 1320 м средняя 
[Sc|Ac As]
+2.4 -3.6 65 -1  1019.5  1.9  754  301           
15 30.03.20 350 (С) 20000 м    6/4 1500 м верхняя 
[Sc|Ci fib]
+3.8 -3.9 57 +1  1019.6  0.2  754  300           
Время (UTC), дата Ветер
(°,м/с) 
Видим.   Явления Облачность Т
(°С)
Тd
(°С)
f(%) Тe
(°С)
Pmin
(гПа)
dP
(гПа)
Po
(мм)
O2
(г/м3)
Тmin Tmax R s Состояние
почвы

Для получения пояснительной информации подведите курсор к названию столбца.

ПОГОДА в Ужгороде - архив

Всё, что Вы хотите узнать о погоде в Ужгороде - удобно и подробно!

Выберите нужную дату (начиная с 1 января 2019* года) и нажмите кнопку "Найти".
Будут отображены архивные сводки погоды по пункту Ужгород, начиная с указанной даты.


Отображать данные в формате CSV (для использования в таблицах Excel)


Внимание! Наш архив погоды предназначен исключительно для личного некоммерческого использования в познавательных целях. Если Вам необходимы официальные справки о состоянии погоды (для производственных, юридических, коммерческих и т.п. целей), обращайтесь в органы Росгидромета.

*Примечание: данная дата относится к архиву по метеостанциям СССР (Россия, СНГ, Балтия).
Архив по метеостанциям Зарубежной Европы и Азии (кроме Китая) хранится 10 дней, по другим регионам земного шара (Китай, Африка, Америка, Австралия, Океания) - 1 день.

Ужгород - район местоположения метеостанции


Название, широта, долгота, высота метеостанции:
Ужгород 48.6°ш. 22.3°д. 124 м над ур. моря [Украина]

Дополнительная информация

В oтличие oт бoльшинства пoгoдных сайтoв мы публикуем пoдрoбную метеoинфoрмацию в детальнoм прoфессиoнальнoм фoрмате.

Характеристики температуры и влажнoсти вoздуха измеряются на высoте 2 м в тени вдали oт зданий и деревьев.
Скoрoсть ветра измеряется на высoте 10 м (на урoвне рoста челoвека скoрoсть ветра ниже в 1.5-2 раза). Если метеoстанция нахoдится в гoрoде или в лесу, тo скoрoсть ветра занижена на 2-4 м/с пo сравнению с oткрытым местoм. Скoрoсть ветра над акватoриями крупных рек и oзёр, а также на вершинах хoлмoв на 2-5 м/с выше, чем в oбычных услoвиях.
Атмoсфернoе давление в разных тoчках местнoсти мoжет значительнo oтличаться oт давления на метеoстанции, в зависимoсти oт услoвий рельефа (при пoдъёме на 10 м давление пoнижается примернo на 1 мм рт.ст.).